User: anonymous   Login
Location: Unspecified
(0.0000°N, 0.0000°E)
Time: 11:23:03
(UTC+02:00)
Language:

Cosmos 1263 Rocket - Orbit

View from above orbital plane
View from above orbital plane
View from above satellite
View from above satellite

Ground track
Ground track

The orbit data is extracted from the following two-line orbital elements,

1 12389U 81033B   14295.10997968  .00069282  00000-0  86216-3 0  1263
2 12389 082.8717 344.5343 0179462 016.2465 059.7109 15.42745880729213
Epoch (UTC): 22 October 2014 02:38:22
Eccentricity: 0.0179462
inclination: 82.8717°
perigee height: 315 km
apogee height: 560 km
right ascension of ascending node: 344.5343°
argument of perigee: 16.2465°
revolutions per day: 15.42745880
mean anomaly at epoch: 59.7109°
orbit number at epoch: 72921

The dashed part of the orbit path shows where the satellite is in the earth's shadow,  

DLR